Simultaneous Nadir Overpasses (SNOs) Predictions

Prediction of SNOs between TERRA and METOP-C Satellite Orbit:

Table of predicted SNOs for the next 14.0 days since TLE Epoch: 9/7/2019
Index Date (TERRA) Time (TERRA) Lat,Lon (TERRA) SZA (TERRA ) Date (METOP-C) Time (METOP-C) Lat,Lon (METOP-C) SZA (METOP-C ) Distance(km) Time Diff (sec)
1 09/07/2019 02:27:10 81.31,-169.63 77.95 09/07/2019 02:26:01 81.30,-169.63 77.91 0.40 69
2 09/07/2019 03:16:37 -81.30, -2.12 102.07 09/07/2019 03:16:41 -81.31, -1.97 102.04 2.76 4
3 09/09/2019 22:01:23 81.31,-103.18 79.02 09/09/2019 22:00:22 81.31,-103.17 79.00 0.41 61
4 09/09/2019 22:50:50 -81.30, 64.35 100.98 09/09/2019 22:51:03 -81.31, 64.17 101.00 3.05 13
5 09/12/2019 17:35:37 81.31, -36.75 80.11 09/12/2019 17:34:44 81.31, -36.71 80.09 0.65 53
6 09/12/2019 18:25:04 -81.30, 130.81 99.89 09/12/2019 18:25:25 -81.31, 130.69 99.89 2.00 21
7 09/15/2019 13:09:51 81.31, 29.68 81.21 09/15/2019 13:09:06 81.31, 29.75 81.20 1.16 45
8 09/15/2019 13:59:18 -81.30,-162.74 98.79 09/15/2019 13:59:47 -81.31,-162.78 98.78 0.91 29
9 09/18/2019 08:44:04 81.31, 96.10 82.32 09/18/2019 08:43:27 81.31, 96.21 82.31 1.89 37




NCC Satellite Simultaneous Nadir Overpasses (SNOs) Prediction Service
